Murray, KY

9:48 PM CST on November 11, 2019 (GMT -0600)
Kyle-Oakley

Weather History for KCEY - September, 2019

Change the Weather History Date:

Monday, September 2, 2019

  Actual Average (KPAH) Record (KPAH)
Temperature  
Mean Temperature 77 °F 75 °F  
Max Temperature 86 °F 87 °F 101 °F (1953)
Min Temperature 68 °F 63 °F 46 °F (1949)
Degree Days  
Heating Degree Days 0 0  
Month to date heating degree days 0  
Since 1 July heating degree days 1  
Cooling Degree Days 12 10  
Month to date cooling degree days 20  
Year to date cooling degree days 1333  
Growing Degree Days 27 (Base 50)    
Moisture  
Dew Point 71 °F    
Average Humidity 84    
Maximum Humidity 100    
Minimum Humidity 51    
Precipitation  
Precipitation 0.00 in 0.10 in 1.90 in (2003)
Month to date precipitation 0.20  
Year to date precipitation 32.68  
Snow  
Snow 0.00 in 0.00 in 0.00 in (2002)
Month to date snowfall 0.0  
Since 1 July snowfall 0.0  
Since 1 September snowfall 0.0  
Snow Depth -    
Sea Level Pressure  
Sea Level Pressure 30.09 in    
Wind  
Wind Speed 4 mph (NNE)    
Max Wind Speed 9 mph    
Max Gust Speed -    
Visibility 10 miles    
Events      
T = Trace of Precipitation, MM = Missing Value Source: NWS Daily Summary

Daily Weather History Graph

Daily Weather History Graph

Search for Another Location

Airport or City:

Astronomy

Sep. 02, 2019 Rise Set
Actual Time 6:25 AM CDT 7:20 PM CDT
Civil Twilight 5:58 AM CDT 7:46 PM CDT
Nautical Twilight 5:27 AM CDT 8:18 PM CDT
Astronomical Twilight 4:55 AM CDT 8:50 PM CDT
Moon 10:02 AM CDT (9/2) 9:48 PM CDT (9/2)
Length of Visible Light 13h 48m
Length of Day
12h 55m
Waxing Crescent, 15% of the Moon is Illuminated
Sep 2
Waxing Crescent
Sep 5
First Quarter
Sep 13
Full
Sep 21
Last Quarter
Sep 28
New

Hourly Weather History & Observations

Time (CDT) Temp. Heat Index Dew Point Humidity Pressure Visibility Wind Dir Wind Speed Gust Speed Precip Events Conditions
12:15 AM 71.6 °F - 71.6 °F 100% 30.08 in 10.0 mi NW 5.8 mph - N/A   Partly Cloudy
12:35 AM 73.4 °F - 73.4 °F 100% 30.08 in 10.0 mi NNW 4.6 mph - N/A   Clear
1:15 AM 71.6 °F - 71.6 °F 100% 30.09 in 10.0 mi Calm Calm - N/A   Clear
1:35 AM 71.6 °F - 71.6 °F 100% 30.09 in 10.0 mi Calm Calm - N/A   Clear
1:55 AM 71.6 °F - 71.6 °F 100% 30.09 in 10.0 mi North 3.5 mph - N/A   Clear
2:15 AM 71.6 °F - 71.6 °F 100% 30.09 in 10.0 mi Calm Calm - N/A   Clear
2:55 AM 71.6 °F - 71.6 °F 100% 30.08 in 10.0 mi Calm Calm - N/A   Clear
3:15 AM 69.8 °F - 69.8 °F 100% 30.08 in 10.0 mi Calm Calm - N/A   Mostly Cloudy
3:35 AM 69.8 °F - 69.8 °F 100% 30.08 in 10.0 mi Calm Calm - N/A   Overcast
3:55 AM 69.8 °F - 69.8 °F 100% 30.08 in 10.0 mi Calm Calm - N/A   Partly Cloudy
4:15 AM 69.8 °F - 69.8 °F 100% 30.08 in 10.0 mi Calm Calm - N/A   Clear
4:35 AM 68.0 °F - 68.0 °F 100% 30.09 in 10.0 mi NNW 4.6 mph - N/A   Clear
4:55 AM 68.0 °F - 68.0 °F 100% 30.09 in 10.0 mi NNW 4.6 mph - N/A   Clear
5:15 AM 68.0 °F - 68.0 °F 100% 30.09 in 10.0 mi NNW 4.6 mph - N/A   Clear
5:35 AM 69.8 °F - 69.8 °F 100% 30.10 in 10.0 mi Calm Calm - N/A   Clear
5:55 AM 69.8 °F - 69.8 °F 100% 30.10 in 10.0 mi Calm Calm - N/A   Clear
6:15 AM 68.0 °F - 68.0 °F 100% 30.10 in 8.0 mi Calm Calm - N/A   Clear
6:35 AM 68.0 °F - 68.0 °F 100% 30.11 in 5.0 mi Calm Calm - N/A   Clear
6:55 AM 68.0 °F - 68.0 °F 100% 30.11 in 5.0 mi NNW 3.5 mph - N/A   Clear
7:15 AM 69.8 °F - 69.8 °F 100% 30.12 in 5.0 mi NNW 3.5 mph - N/A   Clear
7:35 AM 71.6 °F - 71.6 °F 100% 30.12 in 7.0 mi Calm Calm - N/A   Clear
7:55 AM 71.6 °F - 71.6 °F 100% 30.13 in 8.0 mi North 3.5 mph - N/A   Clear
8:15 AM 73.4 °F - 73.4 °F 100% 30.13 in 9.0 mi NE 4.6 mph - N/A   Clear
8:35 AM 75.2 °F - 75.2 °F 100% 30.13 in 10.0 mi NE 4.6 mph - N/A   Clear
8:55 AM 75.2 °F - 75.2 °F 100% 30.13 in 10.0 mi NNE 4.6 mph - N/A   Clear
9:15 AM 77.0 °F - 75.2 °F 94% 30.13 in 10.0 mi North 3.5 mph - N/A   Clear
9:35 AM 78.8 °F - 75.2 °F 89% 30.13 in 10.0 mi NE 5.8 mph - N/A   Clear
9:55 AM 80.6 °F 86.2 °F 75.2 °F 84% 30.13 in 10.0 mi North 5.8 mph - N/A   Clear
10:15 AM 80.6 °F 85.4 °F 73.4 °F 79% 30.13 in 10.0 mi NNE 6.9 mph - N/A   Partly Cloudy
10:35 AM 80.6 °F 84.6 °F 71.6 °F 74% 30.13 in 10.0 mi NE 8.1 mph - N/A   Mostly Cloudy
10:55 AM 80.6 °F 84.6 °F 71.6 °F 74% 30.13 in 10.0 mi North 6.9 mph - N/A   Scattered Clouds
11:15 AM - - - N/A% 30.13 in - NNE 9.2 mph - N/A   Unknown
11:35 AM 82.4 °F 87.2 °F 71.6 °F 70% 30.13 in 10.0 mi North 5.8 mph - N/A   Mostly Cloudy
11:55 AM 82.4 °F 86.3 °F 69.8 °F 66% 30.12 in 10.0 mi North 3.5 mph - N/A   Mostly Cloudy
12:15 PM 84.2 °F 89.6 °F 71.6 °F 66% 30.11 in 10.0 mi NNE 9.2 mph - N/A   Scattered Clouds
12:35 PM 84.2 °F 88.4 °F 69.8 °F 62% 30.11 in 10.0 mi North 3.5 mph - N/A   Partly Cloudy
12:55 PM 84.2 °F 88.4 °F 69.8 °F 62% 30.11 in 10.0 mi NE 3.5 mph - N/A   Partly Cloudy
1:15 PM 84.2 °F 88.4 °F 69.8 °F 62% 30.10 in 10.0 mi NE 8.1 mph - N/A   Scattered Clouds
1:35 PM 86.0 °F 89.4 °F 68.0 °F 55% 30.10 in 10.0 mi North 5.8 mph - N/A   Partly Cloudy
1:55 PM 84.2 °F 87.3 °F 68.0 °F 58% 30.09 in 10.0 mi Calm Calm - N/A   Scattered Clouds
2:15 PM 86.0 °F 89.4 °F 68.0 °F 55% 30.08 in 10.0 mi North 8.1 mph - N/A   Partly Cloudy
2:35 PM 86.0 °F 89.4 °F 68.0 °F 55% 30.08 in 10.0 mi NNE 5.8 mph - N/A   Scattered Clouds
2:55 PM 86.0 °F 89.4 °F 68.0 °F 55% 30.07 in 9.0 mi ENE 8.1 mph - N/A   Scattered Clouds
3:15 PM 84.2 °F 87.3 °F 68.0 °F 58% 30.07 in 10.0 mi NNE 8.1 mph - N/A   Partly Cloudy
3:35 PM 86.0 °F 88.2 °F 66.2 °F 51% 30.07 in 10.0 mi NNE 6.9 mph - N/A   Clear
3:55 PM 86.0 °F 88.2 °F 66.2 °F 51% 30.06 in 10.0 mi NNE 9.2 mph - N/A   Clear
4:15 PM 86.0 °F 88.2 °F 66.2 °F 51% 30.06 in 10.0 mi North 4.6 mph - N/A   Clear
4:35 PM 86.0 °F 89.4 °F 68.0 °F 55% 30.06 in 10.0 mi North 8.1 mph - N/A   Partly Cloudy
5:15 PM 86.0 °F 89.4 °F 68.0 °F 55% 30.06 in 10.0 mi NNE 8.1 mph - N/A   Clear
5:55 PM 84.2 °F 86.6 °F 66.2 °F 55% 30.06 in 10.0 mi North 6.9 mph - N/A   Clear
6:15 PM 84.2 °F 87.3 °F 68.0 °F 58% 30.06 in 10.0 mi NNE 5.8 mph - N/A   Clear
6:35 PM 82.4 °F 85.4 °F 68.0 °F 62% 30.05 in 10.0 mi NNE 4.6 mph - N/A   Clear
6:55 PM 82.4 °F 86.3 °F 69.8 °F 66% 30.05 in 10.0 mi NNE 4.6 mph - N/A   Clear
7:15 PM 80.6 °F 83.9 °F 69.8 °F 70% 30.04 in 10.0 mi Calm Calm - N/A   Clear
7:35 PM 75.2 °F - 73.4 °F 94% 30.04 in 10.0 mi Calm Calm - N/A   Clear
7:55 PM 75.2 °F - 73.4 °F 94% 30.05 in 10.0 mi Calm Calm - N/A   Clear
8:15 PM 75.2 °F - 73.4 °F 94% 30.05 in 10.0 mi Calm Calm - N/A   Clear
8:35 PM 75.2 °F - 73.4 °F 94% 30.05 in 10.0 mi Calm Calm - N/A   Clear
8:55 PM 73.4 °F - 73.4 °F 100% 30.05 in 10.0 mi North 3.5 mph - N/A   Clear
9:15 PM 73.4 °F - 73.4 °F 100% 30.06 in 10.0 mi North 5.8 mph - N/A   Clear
9:35 PM 73.4 °F - 73.4 °F 100% 30.07 in 10.0 mi NNE 5.8 mph - N/A   Clear
9:55 PM 73.4 °F - 71.6 °F 94% 30.07 in 10.0 mi NNE 5.8 mph - N/A   Clear
10:15 PM 73.4 °F - 71.6 °F 94% 30.07 in 10.0 mi NE 5.8 mph - N/A   Clear
10:35 PM 73.4 °F - 73.4 °F 100% 30.07 in 10.0 mi NNE 6.9 mph - N/A   Clear
10:55 PM 71.6 °F - 71.6 °F 100% 30.07 in 10.0 mi NNE 4.6 mph - N/A   Clear
11:15 PM 71.6 °F - 71.6 °F 100% 30.07 in 10.0 mi Calm Calm - N/A   Clear
11:35 PM 71.6 °F - 71.6 °F 100% 30.07 in 10.0 mi NE 3.5 mph - N/A   Clear
11:55 PM 69.8 °F - 69.8 °F 100% 30.06 in 10.0 mi ENE 4.6 mph - N/A   Clear